Location: Bowman Observatory
(41.0326°N, 73.6210°W)
Time: 21:43:52
(UTC-04:00)

Cosmos 2297 - Visible Passes

Search period start: 27 September 2016 00:00
Search period end: 07 October 2016 00:00
Orbit: 836 x 859 km, 71.0° (Epoch: 26 September)

Date Brightness Start Highest point End Pass type
(mag) Time Alt. Az. Time Alt. Az. Time Alt. Az.
27 Sep 3.7 19:12:18 10° NNW 19:18:00 81° ENE 19:23:38 10° SSE visible
27 Sep 6.5 20:58:52 10° WNW 21:01:20 13° W 21:03:49 10° WSW visible
28 Sep 3.7 18:58:58 10° NNW 19:04:40 80° ENE 19:10:18 10° SSE visible
28 Sep 6.5 20:45:26 10° WNW 20:48:02 13° W 20:50:37 10° SW visible
29 Sep 6.6 20:32:01 10° WNW 20:34:43 14° W 20:37:25 10° SW visible
30 Sep 6.6 20:18:36 10° WNW 20:21:24 14° W 20:24:12 10° SW visible
01 Oct 6.6 20:05:11 10° WNW 20:08:05 14° W 20:10:59 10° SW visible
02 Oct 6.7 19:51:46 10° WNW 19:54:47 15° W 19:57:46 10° SW visible
03 Oct 6.7 19:38:22 10° WNW 19:41:28 15° W 19:44:33 10° SW visible
04 Oct 6.7 19:24:58 10° WNW 19:28:09 15° W 19:31:19 10° SW visible
05 Oct 6.8 19:11:33 10° WNW 19:14:50 16° W 19:18:06 10° SW visible
06 Oct 6.8 18:58:10 10° WNW 19:01:31 16° W 19:04:52 10° SW visible
